CW8095 Weather Reports


Display with metric or nautical units.
time (UTC)temp
F
wind
direction
speed
MPH
gust
MPH
rain 1hr
in
rain 24hr
in
rain mn
in
humidity
%
barometer
mb
20260506084543 64 13 3.0 8.0 0.00 0.00 0.00 67 1009.9
20260506083537 64 10 5.0 10.0 0.00 0.00 0.00 67 1009.8
20260506082527 64 15 4.0 8.0 0.00 0.00 0.00 67 1009.9
20260506081521 65 60 2.0 6.0 0.00 0.00 0.00 66 1009.7
20260506080517 65 56 4.0 8.0 0.00 0.00 0.00 66 1009.4
20260506073517 66 26 3.0 7.0 0.00 0.00 0.00 66 1009.7
20260506072527 66 53 4.0 8.0 0.00 0.00 0.00 67 1009.8
20260506071522 66 72 5.0 8.0 0.00 0.00 0.00 67 1009.7
20260506070518 66 50 3.0 10.0 0.00 0.00 0.00 67 1009.8
20260506061543 68 43 3.0 8.0 0.00 0.00 0.00 66 1009.4
20260506060529 68 23 3.0 7.0 0.00 0.00 0.00 66 1009.4
20260506050529 71 289 3.0 8.0 0.00 0.00 0.00 63 1009.3
20260506044524 72 26 3.0 7.0 0.00 0.00 0.00 63 1009.2
20260506043536 73 332 2.0 6.0 0.00 0.00 0.00 63 1009.2
20260506042531 73 314 3.0 9.0 0.00 0.00 0.00 62 1009.2
20260506041518 73 248 3.0 10.0 0.00 0.00 0.00 61 1009.2
20260506040530 73 260 3.0 9.0 0.00 0.00 0.00 60 1008.8
20260506035523 74 82 3.0 7.0 0.00 0.00 0.00 59 1008.7
20260506034518 74 220 3.0 9.0 0.00 0.00 0.00 59 1008.6
20260506033557 75 40 2.0 6.0 0.00 0.00 0.00 58 1008.2
20260506032530 75 240 2.0 8.0 0.00 0.00 0.00 58 1008.0
20260506031531 76 291 2.0 7.0 0.00 0.00 0.00 58 1008.1
20260506030530 76 221 3.0 7.0 0.00 0.00 0.00 57 1008.1
20260506025525 77 252 5.0 13.0 0.00 0.00 0.00 57 1007.9
20260506024520 77 254 4.0 11.0 0.00 0.00 0.00 57 1007.6
20260506023515 78 38 3.0 9.0 0.00 0.00 0.00 56 1007.3
20260506022526 78 23 3.0 11.0 0.00 0.00 0.00 56 1007.0
20260506021521 79 358 3.0 7.0 0.00 0.00 0.00 56 1006.6
20260506020536 80 18 3.0 8.0 0.00 0.00 0.00 55 1006.3
20260506015547 81 27 4.0 9.0 0.00 0.00 0.00 54 1006.2
20260506014522 82 71 5.0 8.0 0.00 0.00 0.00 54 1005.9
20260506013517 82 51 3.0 7.0 0.00 0.00 0.00 53 1005.7
20260506012548 83 31 4.0 9.0 0.00 0.00 0.00 53 1005.6
20260506011523 84 82 2.0 6.0 0.00 0.00 0.00 52 1005.8
20260506010558 85 278 1.0 2.0 0.00 0.00 0.00 52 1005.5
20260506005529 85 117 0.0 3.0 0.00 0.00 0.00 53 1005.1
20260506004523 86 266 1.0 3.0 0.00 0.00 0.00 59 1005.2
20260506003519 86 167 1.0 3.0 0.00 0.00 0.00 62 1005.0
20260506002549 87 144 1.0 3.0 0.00 0.00 0.00 61 1005.0
20260506001524 87 141 3.0 7.0 0.00 0.00 0.00 61 1004.8
20260506000519 88 158 2.0 7.0 0.00 0.00 0.00 58 1004.4
20260505235529 88 163 3.0 9.0 0.00 0.00 0.00 58 1004.4
20260505234523 89 180 4.0 10.0 0.00 0.00 0.00 57 1004.2
20260505233519 90 147 5.0 13.0 0.00 0.00 0.00 55 1004.4
20260505232529 91 163 5.0 11.0 0.00 0.00 0.00 53 1004.1
20260505231523 93 154 3.0 8.0 0.00 0.00 0.00 52 1004.2
20260505230538 94 158 5.0 11.0 0.00 0.00 0.00 51 1004.1
20260505225528 93 147 5.0 13.0 0.00 0.00 0.00 51 1003.9
20260505224523 94 176 5.0 11.0 0.00 0.00 0.00 50 1003.9
20260505223517 94 155 3.0 9.0 0.00 0.00 0.00 46 1003.8
20260505222527 94 150 4.0 10.0 0.00 0.00 0.00 46 1003.7
20260505221522 95 152 5.0 13.0 0.00 0.00 0.00 45 1003.7
20260505220517 95 170 4.0 10.0 0.00 0.00 0.00 44 1003.6
20260505215528 96 125 2.0 7.0 0.00 0.00 0.00 44 1003.6
20260505214522 96 173 3.0 11.0 0.00 0.00 0.00 44 1003.8
20260505213517 96 184 3.0 9.0 0.00 0.00 0.00 44 1003.7
20260505212526 96 155 3.0 8.0 0.00 0.00 0.00 43 1003.9
20260505211520 97 194 4.0 9.0 0.00 0.00 0.00 44 1004.0
20260505210535 96 151 3.0 8.0 0.00 0.00 0.00 44 1004.3
20260505205525 96 158 4.0 10.0 0.00 0.00 0.00 44 1004.3
20260505204517 94 164 3.0 10.0 0.00 0.00 0.00 45 1004.2
20260505203527 96 178 4.0 11.0 0.00 0.00 0.00 43 1004.7
20260505202520 96 142 2.0 9.0 0.00 0.00 0.00 44 1004.7
20260505201515 95 129 2.0 13.0 0.00 0.00 0.00 44 1004.8
20260505200524 94 129 2.0 9.0 0.00 0.00 0.00 46 1004.9
20260505195519 93 133 4.0 10.0 0.00 0.00 0.00 46 1004.9
20260505194529 93 164 3.0 10.0 0.00 0.00 0.00 47 1004.8
20260505193524 93 156 4.0 14.0 0.00 0.00 0.00 47 1004.9
20260505192520 92 177 6.0 16.0 0.00 0.00 0.00 48 1005.0
20260505191530 92 151 5.0 18.0 0.00 0.00 0.00 48 1005.0
20260505190545 92 161 5.0 17.0 0.00 0.00 0.00 51 1005.2
20260505185540 92 168 5.0 13.0 0.00 0.00 0.00 51 1005.3
20260505184515 92 151 5.0 14.0 0.00 0.00 0.00 50 1005.5
20260505183525 92 142 5.0 17.0 0.00 0.00 0.00 49 1005.5
20260505182540 92 121 3.0 9.0 0.00 0.00 0.00 51 1005.6
20260505181516 91 157 5.0 15.0 0.00 0.00 0.00 52 1005.6
20260505180525 91 162 3.0 11.0 0.00 0.00 0.00 51 1005.6
20260505175540 91 150 5.0 11.0 0.00 0.00 0.00 52 1005.6
20260505174516 89 165 6.0 19.0 0.00 0.00 0.00 54 1005.7
20260505173526 89 173 4.0 14.0 0.00 0.00 0.00 53 1005.8
20260505172601 89 148 4.0 11.0 0.00 0.00 0.00 54 1005.6
20260505171516 89 149 4.0 11.0 0.00 0.00 0.00 55 1005.8
20260505170526 88 167 4.0 16.0 0.00 0.00 0.00 56 1005.7
20260505165521 86 147 5.0 13.0 0.00 0.00 0.00 57 1005.6
20260505164516 86 181 7.0 16.0 0.00 0.00 0.00 58 1005.4
20260505163525 85 153 6.0 14.0 0.00 0.00 0.00 59 1005.3
20260505162520 85 169 8.0 21.0 0.00 0.00 0.00 59 1005.4
20260505161528 86 173 7.0 17.0 0.00 0.00 0.00 59 1005.7
20260505160521 84 162 6.0 17.0 0.00 0.00 0.00 61 1005.6
20260505152527 82 151 6.0 15.0 0.00 0.00 0.00 64 1005.9
20260505151601 82 167 6.0 15.0 0.00 0.00 0.00 65 1005.8
20260505150516 80 184 8.0 22.0 0.00 0.00 0.00 67 1005.7
20260505140516 78 164 6.0 14.0 0.00 0.00 0.00 70 1005.4
20260505124521 71 171 4.0 14.0 0.00 0.00 0.00 83 1005.0
20260505123516 71 171 4.0 10.0 0.00 0.00 0.00 84 1004.9
20260505122546 70 191 6.0 14.0 0.00 0.00 0.00 85 1004.9
20260505121540 70 172 6.0 14.0 0.00 0.00 0.00 85 1004.7
20260505120529 69 177 5.0 13.0 0.00 0.00 0.00 86 1004.5
20260505115523 69 162 6.0 13.0 0.00 0.00 0.00 87 1004.7
20260505114518 69 176 6.0 14.0 0.00 0.00 0.00 87 1004.5
20260505113528 69 169 6.0 11.0 0.00 0.00 0.00 87 1004.4
20260505112523 69 175 6.0 15.0 0.00 0.00 0.00 87 1004.6
20260505111539 69 168 6.0 14.0 0.00 0.00 0.00 86 1004.4
20260505110529 69 180 6.0 15.0 0.00 0.00 0.00 86 1004.2
20260505101600 70 184 7.0 16.0 0.00 0.00 0.00 84 1004.5
20260505100530 70 159 6.0 15.0 0.00 0.00 0.00 83 1004.4
20260505095524 71 181 6.0 18.0 0.00 0.00 0.00 83 1004.3
20260505094520 71 165 7.0 17.0 0.00 0.00 0.00 82 1004.5
20260505093530 71 160 6.0 19.0 0.00 0.00 0.00 82 1004.5
20260505092605 71 162 7.0 21.0 0.00 0.00 0.00 83 1004.6
20260505091520 71 168 5.0 11.0 0.00 0.00 0.00 83 1004.8
20260505090515 71 172 5.0 14.0 0.00 0.00 0.00 83 1004.8
20260505085525 71 166 6.0 14.0 0.00 0.00 0.00 82 1004.7